Regional Weather Roundup
Issued by NWS

Home | Current Version | Previous Version | Text Only | Print | Product List | Glossary On
Versions: 1 2 3 4 5 6 7 8 9 10 11 12 13 14 15 16 17 18 19 20 21 22 23 24 25 26 27 28 29 30 31 32 33 34 35 36 37 38 39 40 41 42 43 44 45 46 47 48 49 50
000
ASUS43 KDTX 231810
RWRMI
MICHIGAN HOURLY REGIONAL WEATHER ROUNDUP
NATIONAL WEATHER SERVICE DETROIT/PONTIAC MI
200 PM EDT WED JUL 23 2014

NOTE: "FAIR" INDICATES FEW OR NO CLOUDS BELOW 12,000 FEET WITH NO
SIGNIFICANT WEATHER AND/OR OBSTRUCTION TO VISIBILITY.

MIZ047>049-052>055-059>063-066>070-074>076-081>083-231900-
SOUTHEAST LOWER MICHIGAN

CITY           SKY/WX    TMP DP  RH WIND       PRES   REMARKS
ADRIAN         CLOUDY    73  59  61 N10       30.07S
6HR MIN TEMP:  67; 6HR MAX TEMP:  73;

ALMA           CLOUDY    71  55  57 NW13G18   30.10R
6HR MIN TEMP:  63; 6HR MAX TEMP:  72;

ANN ARBOR      PTSUNNY   74  58  57 N13       30.06S
BAD AXE        CLOUDY    65  55  69 NE13G21   30.09S
6HR MIN TEMP:  62; 6HR MAX TEMP:  65;

CARO           CLOUDY    69  59  71 N8        30.08S
DETROIT CITY   CLOUDY    73  57  57 N10G21    30.06R
6HR MIN TEMP:  66; 6HR MAX TEMP:  73; 6HR PCP: TRACE;

DETROIT        CLOUDY    74  58  57 N10       30.05R
6HR MIN TEMP:  67; 6HR MAX TEMP:  75;

FLINT          CLOUDY    71  55  56 N12       30.09R
6HR MIN TEMP:  65; 6HR MAX TEMP:  72;

GROSSE ILE     CLOUDY    73  61  64 N9        30.04R
HILLSDALE      PTSUNNY   72  60  65 N9        30.08S
6HR MIN TEMP:  66; 6HR MAX TEMP:  73;

HOWELL         CLOUDY    68  55  64 N7        30.09R
6HR MIN TEMP:  62; 6HR MAX TEMP:  69;


CITY           SKY/WX    TMP DP  RH WIND       PRES   REMARKS
JACKSON        CLOUDY    71  58  63 N10       30.08S
6HR MIN TEMP:  64; 6HR MAX TEMP:  75;

LAMBERTVILLE   CLOUDY    72  59  64 NW10      30.06S
LANSING        CLOUDY    70  55  59 N7        30.10R
6HR MIN TEMP:  62; 6HR MAX TEMP:  72;

LAPEER         CLOUDY    67  54  62 N12       30.09R
MASON          CLOUDY    68  56  65 N7        30.10R
MONROE         CLOUDY    73  61  64 NW8       30.03S
MT. CLEMENS    CLOUDY    67  56  67 N15       30.05R
6HR MIN TEMP:  65; 6HR MAX TEMP:  69;

PONTIAC        CLOUDY    70  54  56 N15       30.08R
6HR MIN TEMP:  64; 6HR MAX TEMP:  71;

PORT HOPE        N/A     65  55  70 N12G18    30.08S
6HR MIN TEMP:  63; 6HR MAX TEMP:  68;

PORT HURON     CLOUDY    64  57  77 N10G16    30.07R
TRI CITIES     CLOUDY    74  56  53 N14       30.09R
6HR MIN TEMP:  65; 6HR MAX TEMP:  74;

TROY           CLOUDY    69  57  64 N10       30.08R
SAGINAW HB     MOSUNNY   72  55  56 N10       30.08R
$$
MIZ043>046-050>051-056>058-064>065-071>073-077>080-231900-
SOUTHWEST LOWER MICHIGAN

CITY           SKY/WX    TMP DP  RH WIND       PRES   REMARKS
BATTLE CREEK   CLOUDY    72  56  57 N12       30.10S
6HR MIN TEMP:  64; 6HR MAX TEMP:  75;

BENTON HARBOR  CLOUDY    66  59  78 NW12G20   30.13S
6HR MIN TEMP:  63; 6HR MAX TEMP:  68;

BIG RAPIDS     CLOUDY    67  53  59 N9G20     30.13S
6HR MIN TEMP:  61; 6HR MAX TEMP:  68;

COLDWATER      PTSUNNY   74  59  58 N10       30.08F
6HR MIN TEMP:  66; 6HR MAX TEMP:  74;

FREMONT        MOCLDY    70  55  57 N9        30.13S
HOLLAND        MOSUNNY   75  58  55 VRB7      30.12F
6HR MIN TEMP:  63; 6HR MAX TEMP:  75;

GRAND RAPIDS   PTSUNNY   74  56  53 N14       30.10F
6HR MIN TEMP:  64; 6HR MAX TEMP:  75;

IONIA          MOCLDY    69  56  62 N8        30.09F
KALAMAZOO      CLOUDY    73  57  57 N12       30.10S
6HR MIN TEMP:  64; 6HR MAX TEMP:  74;

LUDINGTON      SUNNY     63  54  72 N15       30.17S
6HR MIN TEMP:  59; 6HR MAX TEMP:  66;

MARSHALL       CLOUDY    70  57  63 N5        30.09S
MOUNT PLEASANT CLOUDY    69  55  60 N9        30.10S
6HR MIN TEMP:  62; 6HR MAX TEMP:  71;

MUSKEGON       PTSUNNY   74  55  51 N12       30.13S
6HR MIN TEMP:  61; 6HR MAX TEMP:  74;

SOUTH HAVEN    MOSUNNY   68  62  79 N13G22    30.12S
$$
MIZ016>042-231900-
NORTHERN LOWER MICHIGAN

CITY           SKY/WX    TMP DP  RH WIND       PRES   REMARKS
ALPENA         PTSUNNY   67  53  61 N16       30.12R
6HR MIN TEMP:  60; 6HR MAX TEMP:  68;

BEAVER ISLAND  SUNNY     68  52  56 N9        30.17S
6HR MIN TEMP:  57; 6HR MAX TEMP:  68;

BELLAIRE       CLOUDY    64  54  69 NW6       30.16R
6HR MIN TEMP:  60; 6HR MAX TEMP:  64;

CADILLAC       CLOUDY    61  54  78 NW12      30.16R
CHARLEVOIX     CLOUDY    62  54  73 N9        30.20R
6HR MIN TEMP:  59; 6HR MAX TEMP:  63;

FRANKFORT      PTSUNNY   64  51  62 N10       30.18S
GAYLORD        CLOUDY    60  52  74 VRB7      30.16R
6HR MIN TEMP:  57; 6HR MAX TEMP:  61;

GRAYLING       CLOUDY    63  55  76 NW8       30.15S
6HR MIN TEMP:  59; 6HR MAX TEMP:  64;

HARBOR SPRINGS CLOUDY    64  52  64 CALM      30.16R
HOUGHTON LAKE  CLOUDY    64  54  69 N8G20     30.14R
6HR MIN TEMP:  59; 6HR MAX TEMP:  66;

MANISTEE       SUNNY     63  52  67 NW18G24   30.17F
OSCODA         PTSUNNY   73  51  46 N16G24    30.08S
PELLSTON       PTSUNNY   67  52  58 N12       30.15S
6HR MIN TEMP:  59; 6HR MAX TEMP:  67;

ROGERS CITY    SUNNY     64  55  72 NW8       30.14S
TRAVERSE CITY  CLOUDY    63  50  62 N9        30.16S
6HR MIN TEMP:  60; 6HR MAX TEMP:  63;

$$
MIZ007>008-015-231900-
EASTERN UPPER MICHIGAN

CITY           SKY/WX    TMP DP  RH WIND       PRES   REMARKS
KINROSS        SUNNY     66  52  59 NW13      30.15R
6HR MIN TEMP:  55; 6HR MAX TEMP:  66;

MACKINAC ISLAN SUNNY     67  52  58 N9        30.14R
6HR MIN TEMP:  56; 6HR MAX TEMP:  67;

NEWBERRY       SUNNY     65  48  55 N15G24    30.18R
6HR MIN TEMP:  52; 6HR MAX TEMP:  65;

S. S. MARIE    MOSUNNY   68  51  54 NW13G20   30.14R
6HR MIN TEMP:  58; 6HR MAX TEMP:  69;

MUNISING         N/A     61  49  64 NE9       30.24R
6HR MIN TEMP:  53; 6HR MAX TEMP:  61;

$$
MIZ004>006-011>014-085-231900-
CENTRAL UPPER MICHIGAN

CITY           SKY/WX    TMP DP  RH WIND       PRES   REMARKS
MANISTIQUE     MOSUNNY   70  49  46 N15G22    30.18S
ESCANABA       MOSUNNY   68  48  49 N13G22    30.20S
6HR MIN TEMP:  55; 6HR MAX TEMP:  68;

MENOMINEE      MOSUNNY   70  48  46 E8        30.20R
6HR MIN TEMP:  57; 6HR MAX TEMP:  70;

SAWYER-GWINN   MOSUNNY   64  46  52 NE12G17   30.24S
$$
MIZ001>003-009>011-084-231900-
WESTERN UPPER MICHIGAN

CITY           SKY/WX    TMP DP  RH WIND       PRES   REMARKS
IRON MOUNTAIN  MOSUNNY   70  46  42 N8G16     30.22S
6HR MIN TEMP:  56; 6HR MAX TEMP:  72;

HOUGHTON       SUNNY     68  49  50 NW9       30.24S
6HR MIN TEMP:  58; 6HR MAX TEMP:  68;

COPPER HARBOR    N/A     59  53  80 N12       30.23F
6HR MIN TEMP:  57; 6HR MAX TEMP:  60;

$$

ABBREVIATIONS USED IN REMARKS
   TC - TEMPERATURE IN CELSIUS
  WCI - WIND CHILL INDEX
   HX - HEAT INDEX
  VSB - VISIBILITY



USA.gov is the U.S. government's official web portal to all federal, state and local government web resources and services.